Preview of NWS' New Version of Forecast
This preview is not operational and should not be used for support decisions.

Regional Weather Roundup (RWR)

Issued by National Weather Service (NWS)

                            
000
ASUS43 KDMX 190606
RWRIA 

WEATHER ROUNDUP FOR IOWA
NATIONAL WEATHER SERVICE DES MOINES IA
100 AM CDT FRI APR 19 2019

NOTE: "FAIR" INDICATES FEW OR NO CLOUDS BELOW 12,000 FEET WITH NO
SIGNIFICANT WEATHER AND/OR OBSTRUCTIONS TO VISIBILITY.

* - THESE STATIONS ARE NOT NWS STATIONS...THUS NOT UNDER NWS
QUALITY CONTROL.  THEY ALSO DO NOT REPORT WEATHER SUCH 
AS PRECIPITATION OR FOG.  

IAZ001>003-012>014-020>022-031>034-043>046-190700-
   NORTHWEST IOWA
  
CITY           SKY/WX    TMP DP  RH WIND       PRES   REMARKS
CARROLL *      CLEAR     43  41  93 N10       29.99R                  
CHEROKEE *     PTCLDY    38  36  91 N5        30.01S WCI  35          
DENISON *      PTCLDY    39  37  93 N7        30.02R WCI  34          
LE MARS *      CLEAR     41  37  87 NW10      30.04R                  
SHELDON *      CLEAR     36  36 100 NW9       30.01R WCI  29          
SIOUX CITY     CLEAR     40  36  86 NW8       30.04R WCI  34          
6HR MIN TEMP:  39; 6HR MAX TEMP:  52;                                

SPENCER        CLEAR     41  36  82 N10       30.00S                  
6HR MIN TEMP:  38; 6HR MAX TEMP:  49;                                

STORM LAKE *   CLEAR     39  37  93 N10       29.97R WCI  32          
$$
 
IAZ055>058-069>071-079>083-090>094-190700-
   SOUTHWEST IOWA
  
CITY           SKY/WX    TMP DP  RH WIND       PRES   REMARKS
ATLANTIC *     CLEAR     39  39 100 N5        30.00R                  
AUDUBON *      MOCLDY    41  37  87 CALM      30.00R                  
CLARINDA *     CLEAR     43  37  81 N9        30.02R                  
COUNCIL BLFS * CLEAR     43  43 100 NW9       30.02R                  
CRESTON *      CLOUDY    45  39  81 N12       29.97R                  
HARLAN  *      MOCLDY    41  39  93 N6        30.01R                  
LAMONI         PTCLDY    45  37  73 N12       29.94R                  
6HR MIN TEMP:  45; 6HR MAX TEMP:  53;                                

RED OAK *        N/A     41  37  87 N7        30.01R                  
SHENANDOAH *   CLOUDY    46  39  76 N8        30.01R                  
$$
 
IAZ047>049-059>061-072>074-084-190700-
   CENTRAL IOWA
  
CITY           SKY/WX    TMP DP  RH WIND       PRES   REMARKS
AMES           PTCLDY    43  38  82 N12       29.96R                  
6HR MIN TEMP:  42; 6HR MAX TEMP:  52;                                

ANKENY *       CLEAR     43  39  87 N9        29.97R                  
BOONE *        CLEAR     39  39 100 N8        29.96R WCI  34          
CHARITON *     CLEAR     45  39  81 N12       29.93R                  
DES MOINES     PTCLDY    45  38  76 N8        29.96R                  
6HR MIN TEMP:  45; 6HR MAX TEMP:  51;                                

GRINNELL*      PTCLDY    40  37  87 N7        29.94R                  
KNOXVILLE *    PTCLDY    45  43  93 N10       29.93R                  
MARSHALLTOWN   CLEAR     39  37  92 NW10      29.93R WCI  32          
6HR MIN TEMP:  39; 6HR MAX TEMP:  51;                                

NEWTON *       PTCLDY    43  39  87 N10       29.93R                  
PELLA *        PTCLDY    43  37  79 N6        29.94R                  
PERRY *        FAIR      40  38  91 NW6       29.98R                  
$$
 
IAZ004>006-015-016-023>025-035-036-190700-
   NORTH CENTRAL IOWA
  
CITY           SKY/WX    TMP DP  RH WIND       PRES   REMARKS
ALGONA *       CLEAR     37  37 100 NW7       29.97R WCI  32          
CLARION *      CLEAR     37  36  93 N7        29.98R WCI  32          
ESTHERVILLE    CLEAR     36  33  89 NW9       29.99S WCI  29          
6HR MIN TEMP:  36; 6HR MAX TEMP:  46; 6HR PCP: TRACE;                

FORT DODGE *   CLEAR     40  37  89 N6        29.99R                  
MASON CITY     CLEAR     37  36  96 N7        29.99R WCI  32          
6HR MIN TEMP:  36; 6HR MAX TEMP:  50; 6HR PCP: TRACE;                

FOREST CITY *  FAIR      37  36  93 N6        29.99R WCI  33          
IOWA FALLS *   FAIR      41  38  89 N10       29.96S                  
$$

IAZ007>011-017>019-026>030-037>042-050>054-066-190700-
   NORTHEAST IOWA
  
CITY           SKY/WX    TMP DP  RH WIND       PRES   REMARKS
CEDAR RAPIDS   FAIR      42  36  79 N10       29.90R                  
6HR MIN TEMP:  42; 6HR MAX TEMP:  49;                                

CHARLES CITY * FAIR      39  37  93 N9        29.96R WCI  33          
CLINTON *      CLOUDY    44  36  73 N14       29.86R                  
DECORAH *      FAIR      41  36  81 N9        29.92R                  
DUBUQUE        FAIR      42  35  76 N15G23    29.87R                  
6HR MIN TEMP:  42; 6HR MAX TEMP:  46;                                

MONTICELLO *   FAIR      45  37  76 N9        29.89R                  
OELWEIN *      FAIR      37  37 100 N9        29.92S WCI  31          
WATERLOO       FAIR      42  38  85 NW12      29.93R                  
6HR MIN TEMP:  39; 6HR MAX TEMP:  51;                                

$$
 
IAZ064-065-067-068-078-190700-
   EAST CENTRAL IOWA
  
CITY           SKY/WX    TMP DP  RH WIND       PRES   REMARKS
DAVENPORT      CLOUDY    45  35  68 N17G26    29.87R                  
6HR MIN TEMP:  45; 6HR MAX TEMP:  48;                                

IOWA CITY      FAIR      46  35  65 N13       29.91R                  
6HR MIN TEMP:  45; 6HR MAX TEMP:  52;                                

MT. PLEASANT * CLOUDY    46  37  71 N16       29.87F                  
MUSCATINE *    CLOUDY    46  36  66 N12G21    29.88R                  
QUAD CITIES    CLOUDY    48  36  63 N15G24    29.84R                  
6HR MIN TEMP:  48; 6HR MAX TEMP:  51;                                

$$
 
IAZ062-063-075>077-085>089-095>099-190700-
   SOUTHEAST IOWA
  
CITY           SKY/WX    TMP DP  RH WIND       PRES   REMARKS
BURLINGTON     CLOUDY    47  36  65 N14       29.84S                  
6HR MIN TEMP:  47; 6HR MAX TEMP:  52;                                

FAIRFIELD *    MOCLDY    43  36  75 N14       29.88F                  
FORT MADISON * CLOUDY    46  37  71 N12       29.86S                  
KEOKUK *       CLOUDY    46  36  66 N15       29.85R                  
OSKALOOSA *    FAIR      41  35  80 N8        29.92R                  
CENTERVILLE *  FAIR      45  39  81 N7        29.92R                  
OTTUMWA        PTCLDY    40  34  79 N8        29.91R WCI  34          
6HR MIN TEMP:  40; 6HR MAX TEMP:  53;                                

WASHINGTON *   CLOUDY    43  37  81 N10       29.89S                  
$$

ABBREVIATIONS USED IN REMARKS
   TC - TEMPERATURES IN CELSIUS
  WCI - WIND CHILL INDEX
   HX - HEAT INDEX
  VSB - VISIBILITY  
$$